This is the latest recevied weather packets stored in our database for station/object EA1GEC-10. If no packets are shown the sender has not sent any weather packets the latest 10 day(s).
| Time | Temp. | Humidity | Pressure | Rain* | Wind** | Luminosity | Snow |
|---|---|---|---|---|---|---|---|
| 1777573689 | 16.11° C | 61% | 1024.5 hPa | - | - | - | - |
| 1777572789 | 16.11° C | 61% | 1024.5 hPa | - | - | - | - |
| 1777571889 | 16.67° C | 60% | 1024.4 hPa | - | - | - | - |
| 1777570989 | 16.67° C | 60% | 1024.3 hPa | - | - | - | - |
| 1777570089 | 16.67° C | 59% | 1024.3 hPa | - | - | - | - |
| 1777569189 | 17.22° C | 58% | 1024.2 hPa | - | - | - | - |
| 1777568289 | 17.78° C | 56% | 1024.3 hPa | - | - | - | - |
| 1777567389 | 18.33° C | 57% | 1024 hPa | - | - | - | - |
| 1777566488 | 18.33° C | 56% | 1024 hPa | - | - | - | - |
| 1777565588 | 18.33° C | 55% | 1023.9 hPa | - | - | - | - |
| 1777564688 | 18.89° C | 54% | 1024 hPa | - | - | - | - |
| 1777563798 | 19.44° C | 54% | 1023.9 hPa | - | - | - | - |
| 1777562888 | 18.33° C | 55% | 1024 hPa | - | - | - | - |
| 1777561988 | 19.44° C | 53% | 1023.9 hPa | - | - | - | - |
| 1777561088 | 20° C | 53% | 1023.9 hPa | - | - | - | - |
| 1777560188 | 20.56° C | 52% | 1024 hPa | - | - | - | - |
| 1777559307 | 20° C | 52% | 1023.9 hPa | - | - | - | - |
| 1777557469 | 20° C | 50% | 1023.9 hPa | - | - | - | - |
| 1777556569 | 21.11° C | 48% | 1023.8 hPa | - | - | - | - |
| 1777555669 | 23.89° C | 47% | 1023.9 hPa | - | - | - | - |
| 1777554769 | 20.56° C | 52% | 1023.9 hPa | - | - | - | - |
| 1777553869 | 19.44° C | 53% | 1023.9 hPa | - | - | - | - |
| 1777552969 | 20° C | 52% | 1023.9 hPa | - | - | - | - |
| 1777552069 | 19.44° C | 53% | 1023.9 hPa | - | - | - | - |
| 1777551168 | 20° C | 55% | 1023.9 hPa | - | - | - | - |
* Rain since midnight (hover to see other rain measurements)
** Current wind speed in m/s (hover to see current wind gust speed)